TimeCDT,TemperatureF,Dew PointF,Humidity,Sea Level PressureIn,VisibilityMPH,Wind Direction,Wind SpeedMPH,Gust SpeedMPH,PrecipitationIn,Events,Conditions,WindDirDegrees,DateUTC
12:53 AM,75.0,66.9,76,30.11,10.0,ESE,4.6,-,N/A,,Clear,110,2012-10-04 05:53:00
1:53 AM,75.0,66.9,76,30.12,10.0,ESE,4.6,-,N/A,,Clear,120,2012-10-04 06:53:00
2:53 AM,75.0,68.0,79,30.12,9.0,ESE,4.6,-,N/A,,Clear,110,2012-10-04 07:53:00
3:53 AM,75.9,70.0,82,30.12,8.0,East,4.6,-,N/A,,Clear,100,2012-10-04 08:53:00
4:53 AM,75.9,70.0,82,30.14,9.0,East,8.1,-,N/A,,Clear,90,2012-10-04 09:53:00
5:53 AM,75.9,70.0,82,30.15,8.0,East,9.2,-,N/A,,Clear,80,2012-10-04 10:53:00
6:53 AM,75.0,69.1,82,30.17,8.0,East,11.5,-,N/A,,Clear,80,2012-10-04 11:53:00
7:53 AM,75.0,69.1,82,30.17,5.0,East,10.4,-,N/A,,Haze,80,2012-10-04 12:53:00
8:53 AM,77.0,70.0,79,30.19,7.0,ENE,10.4,-,N/A,,Clear,70,2012-10-04 13:53:00
9:53 AM,79.0,69.1,72,30.20,8.0,ENE,9.2,-,N/A,,Clear,60,2012-10-04 14:53:00
10:53 AM,81.0,69.1,67,30.20,9.0,NE,8.1,-,N/A,,Clear,40,2012-10-04 15:53:00
11:53 AM,82.0,71.1,69,30.19,9.0,NE,9.2,-,N/A,,Partly Cloudy,40,2012-10-04 16:53:00
12:53 PM,84.9,66.9,55,30.17,10.0,East,8.1,-,N/A,,Partly Cloudy,80,2012-10-04 17:53:00
1:53 PM,84.9,66.0,53,30.16,10.0,East,6.9,-,N/A,,Clear,90,2012-10-04 18:53:00
2:53 PM,86.0,68.0,55,30.14,10.0,ENE,9.2,-,N/A,,Partly Cloudy,60,2012-10-04 19:53:00
3:53 PM,86.0,66.0,51,30.14,10.0,East,8.1,-,N/A,,Clear,100,2012-10-04 20:53:00
4:53 PM,86.0,64.4,48,30.15,10.0,East,5.8,-,N/A,,Clear,90,2012-10-04 21:53:00
5:53 PM,84.0,66.9,56,30.14,10.0,ESE,6.9,-,N/A,,Clear,120,2012-10-04 22:53:00
6:53 PM,81.0,69.1,67,30.13,10.0,ESE,5.8,-,N/A,,Clear,110,2012-10-04 23:53:00
7:53 PM,80.1,68.0,67,30.14,10.0,SE,5.8,-,N/A,,Clear,130,2012-10-05 00:53:00
8:53 PM,78.1,69.1,74,30.14,10.0,SSE,3.5,-,N/A,,Clear,160,2012-10-05 01:53:00
9:53 PM,77.0,68.0,74,30.15,10.0,SSE,4.6,-,N/A,,Clear,160,2012-10-05 02:53:00
10:53 PM,77.0,66.9,71,30.15,10.0,SSE,3.5,-,N/A,,Clear,160,2012-10-05 03:53:00
11:53 PM,75.9,68.0,76,30.14,10.0,SE,4.6,-,N/A,,Clear,130,2012-10-05 04:53:00